PRIVATE WETTERSTATION BILLIGHEIM-ALLFELD                       ZURCK
Wetterdaten: Donnerstag, 23.06.2016
Datum Zeit Temp. A. Temp. A. min Temp. A. max Feuchte A. Luftdruck Regen Wind Richtung Richtung Sonnenschein ET Solar Taupunkt Windchill Windben Empfang
23.06.2016 00:00 20,6 C 20,6 C 20,7 C 82 % 1020,7 hPa 0,0 l/m 0,0 km/h (0 Bft) NO 45 0 min 0,025 mm 0 W/m 17,4 C 20,6 C 6,4 km/h (2 Bft) 100 %
23.06.2016 00:10 20,4 C 20,4 C 20,6 C 82 % 1020,7 hPa 0,0 l/m 0,0 km/h (0 Bft) NO 45 0 min 0,000 mm 0 W/m 17,2 C 20,4 C 1,6 km/h (1 Bft) 100 %
23.06.2016 00:20 20,3 C 20,3 C 20,4 C 82 % 1020,7 hPa 0,0 l/m 0,0 km/h (0 Bft) NO 45 0 min 0,000 mm 0 W/m 17,1 C 20,3 C 1,6 km/h (1 Bft) 100 %
23.06.2016 00:30 20,2 C 20,2 C 20,3 C 83 % 1020,7 hPa 0,0 l/m 0,0 km/h (0 Bft) N-NO 22 0 min 0,000 mm 0 W/m 17,2 C 20,2 C 1,6 km/h (1 Bft) 99 %
23.06.2016 00:40 20,1 C 20,1 C 20,2 C 83 % 1020,8 hPa 0,0 l/m 0,0 km/h (0 Bft) N 0 0 min 0,000 mm 0 W/m 17,1 C 20,1 C 0,0 km/h (0 Bft) 100 %
23.06.2016 00:50 19,9 C 19,9 C 20,1 C 84 % 1020,7 hPa 0,0 l/m 0,0 km/h (0 Bft) N 360 0 min 0,000 mm 0 W/m 17,1 C 19,9 C 1,6 km/h (1 Bft) 100 %
23.06.2016 01:00 19,6 C 19,6 C 19,9 C 85 % 1020,6 hPa 0,0 l/m 0,0 km/h (0 Bft) N 0 0 min 0,025 mm 0 W/m 17,0 C 19,6 C 0,0 km/h (0 Bft) 100 %
23.06.2016 01:10 19,3 C 19,3 C 19,6 C 86 % 1020,7 hPa 0,0 l/m 0,0 km/h (0 Bft) N 360 0 min 0,000 mm 0 W/m 16,9 C 19,3 C 1,6 km/h (1 Bft) 100 %
23.06.2016 01:20 18,9 C 18,9 C 19,3 C 86 % 1020,7 hPa 0,0 l/m 0,0 km/h (0 Bft) N 360 0 min 0,000 mm 0 W/m 16,5 C 18,9 C 1,6 km/h (1 Bft) 100 %
23.06.2016 01:30 18,6 C 18,6 C 18,9 C 87 % 1020,7 hPa 0,0 l/m 0,0 km/h (0 Bft) N-NW 337 0 min 0,000 mm 0 W/m 16,4 C 18,6 C 1,6 km/h (1 Bft) 100 %
23.06.2016 01:40 18,2 C 18,2 C 18,6 C 88 % 1020,7 hPa 0,0 l/m 0,0 km/h (0 Bft) N-NW 337 0 min 0,000 mm 0 W/m 16,2 C 18,2 C 1,6 km/h (1 Bft) 100 %
23.06.2016 01:50 18,0 C 18,0 C 18,2 C 88 % 1020,7 hPa 0,0 l/m 0,0 km/h (0 Bft) N-NW 337 0 min 0,000 mm 0 W/m 16,0 C 18,0 C 1,6 km/h (1 Bft) 100 %
23.06.2016 02:00 17,8 C 17,8 C 18,0 C 89 % 1020,7 hPa 0,0 l/m 0,0 km/h (0 Bft) N 0 0 min 0,000 mm 0 W/m 16,0 C 17,8 C 0,0 km/h (0 Bft) 100 %
23.06.2016 02:10 17,6 C 17,6 C 17,8 C 89 % 1020,6 hPa 0,0 l/m 0,0 km/h (0 Bft) N 0 0 min 0,000 mm 0 W/m 15,8 C 17,6 C 0,0 km/h (0 Bft) 100 %
23.06.2016 02:20 17,3 C 17,3 C 17,5 C 89 % 1020,5 hPa 0,0 l/m 0,0 km/h (0 Bft) N 0 0 min 0,000 mm 0 W/m 15,5 C 17,3 C 0,0 km/h (0 Bft) 100 %
23.06.2016 02:30 17,2 C 17,2 C 17,3 C 90 % 1020,5 hPa 0,0 l/m 0,0 km/h (0 Bft) N 0 0 min 0,000 mm 0 W/m 15,5 C 17,2 C 0,0 km/h (0 Bft) 100 %
23.06.2016 02:40 17,0 C 17,0 C 17,2 C 90 % 1020,6 hPa 0,0 l/m 0,0 km/h (0 Bft) N-NW 337 0 min 0,000 mm 0 W/m 15,3 C 17,0 C 1,6 km/h (1 Bft) 100 %
23.06.2016 02:50 16,8 C 16,8 C 17,0 C 90 % 1020,5 hPa 0,0 l/m 0,0 km/h (0 Bft) N 0 0 min 0,000 mm 0 W/m 15,1 C 16,8 C 0,0 km/h (0 Bft) 100 %
23.06.2016 03:00 16,7 C 16,7 C 16,8 C 90 % 1020,4 hPa 0,0 l/m 0,0 km/h (0 Bft) N 0 0 min 0,000 mm 0 W/m 15,0 C 16,7 C 0,0 km/h (0 Bft) 100 %
23.06.2016 03:10 16,7 C 16,7 C 16,7 C 90 % 1020,4 hPa 0,0 l/m 0,0 km/h (0 Bft) N 0 0 min 0,000 mm 0 W/m 15,0 C 16,7 C 0,0 km/h (0 Bft) 100 %
23.06.2016 03:20 16,5 C 16,5 C 16,7 C 90 % 1020,3 hPa 0,0 l/m 0,0 km/h (0 Bft) N-NW 337 0 min 0,000 mm 0 W/m 14,9 C 16,5 C 1,6 km/h (1 Bft) 100 %
23.06.2016 03:30 16,3 C 16,3 C 16,5 C 90 % 1020,3 hPa 0,0 l/m 0,0 km/h (0 Bft) N 0 0 min 0,000 mm 0 W/m 14,7 C 16,3 C 0,0 km/h (0 Bft) 100 %
23.06.2016 03:40 16,2 C 16,2 C 16,3 C 90 % 1020,2 hPa 0,0 l/m 0,0 km/h (0 Bft) N-NW 337 0 min 0,000 mm 0 W/m 14,6 C 16,2 C 1,6 km/h (1 Bft) 100 %
23.06.2016 03:50 16,1 C 16,1 C 16,2 C 90 % 1020,0 hPa 0,0 l/m 0,0 km/h (0 Bft) N 0 0 min 0,000 mm 0 W/m 14,5 C 16,1 C 0,0 km/h (0 Bft) 100 %
23.06.2016 04:00 16,1 C 16,1 C 16,1 C 90 % 1020,0 hPa 0,0 l/m 0,0 km/h (0 Bft) N-NW 337 0 min 0,000 mm 0 W/m 14,5 C 16,1 C 1,6 km/h (1 Bft) 100 %
23.06.2016 04:10 16,1 C 16,1 C 16,1 C 90 % 1019,9 hPa 0,0 l/m 0,0 km/h (0 Bft) N 0 0 min 0,000 mm 0 W/m 14,5 C 16,1 C 0,0 km/h (0 Bft) 100 %
23.06.2016 04:20 16,0 C 16,0 C 16,1 C 90 % 1020,0 hPa 0,0 l/m 0,0 km/h (0 Bft) N 0 0 min 0,000 mm 0 W/m 14,4 C 16,0 C 0,0 km/h (0 Bft) 100 %
23.06.2016 04:30 15,9 C 15,9 C 16,0 C 90 % 1019,9 hPa 0,0 l/m 0,0 km/h (0 Bft) NW 315 0 min 0,000 mm 0 W/m 14,3 C 15,9 C 1,6 km/h (1 Bft) 100 %
23.06.2016 04:40 15,8 C 15,8 C 15,9 C 90 % 1020,0 hPa 0,0 l/m 0,0 km/h (0 Bft) NW 315 0 min 0,000 mm 0 W/m 14,2 C 15,8 C 1,6 km/h (1 Bft) 100 %
23.06.2016 04:50 15,7 C 15,7 C 15,8 C 90 % 1019,9 hPa 0,0 l/m 0,0 km/h (0 Bft) N-NW 337 0 min 0,000 mm 0 W/m 14,1 C 15,7 C 1,6 km/h (1 Bft) 100 %
23.06.2016 05:00 15,7 C 15,7 C 15,7 C 91 % 1020,0 hPa 0,0 l/m 0,0 km/h (0 Bft) N-NW 337 0 min 0,000 mm 0 W/m 14,2 C 15,7 C 1,6 km/h (1 Bft) 100 %
23.06.2016 05:10 15,6 C 15,6 C 15,7 C 90 % 1020,0 hPa 0,0 l/m 0,0 km/h (0 Bft) N 0 0 min 0,000 mm 0 W/m 14,0 C 15,6 C 0,0 km/h (0 Bft) 100 %
23.06.2016 05:20 15,6 C 15,6 C 15,6 C 90 % 1019,8 hPa 0,0 l/m 0,0 km/h (0 Bft) N 0 0 min 0,000 mm 0 W/m 14,0 C 15,6 C 0,0 km/h (0 Bft) 100 %
23.06.2016 05:30 15,5 C 15,5 C 15,6 C 90 % 1019,8 hPa 0,0 l/m 0,0 km/h (0 Bft) N 0 0 min 0,000 mm 5 W/m 13,9 C 15,5 C 0,0 km/h (0 Bft) 100 %
23.06.2016 05:40 15,4 C 15,4 C 15,5 C 91 % 1019,8 hPa 0,0 l/m 0,0 km/h (0 Bft) N-NW 337 0 min 0,000 mm 7 W/m 13,9 C 15,4 C 1,6 km/h (1 Bft) 100 %
23.06.2016 05:50 15,3 C 15,3 C 15,4 C 91 % 1019,9 hPa 0,0 l/m 0,0 km/h (0 Bft) N-NW 337 0 min 0,000 mm 9 W/m 13,8 C 15,3 C 1,6 km/h (1 Bft) 100 %
23.06.2016 06:00 15,3 C 15,3 C 15,3 C 91 % 1019,9 hPa 0,0 l/m 0,0 km/h (0 Bft) N 0 0 min 0,000 mm 11 W/m 13,8 C 15,3 C 0,0 km/h (0 Bft) 100 %
23.06.2016 06:10 15,4 C 15,3 C 15,4 C 91 % 1019,8 hPa 0,0 l/m 0,0 km/h (0 Bft) N-NW 337 0 min 0,000 mm 12 W/m 13,9 C 15,4 C 1,6 km/h (1 Bft) 100 %
23.06.2016 06:20 15,5 C 15,4 C 15,5 C 91 % 1019,8 hPa 0,0 l/m 0,0 km/h (0 Bft) N 0 0 min 0,000 mm 12 W/m 14,0 C 15,5 C 0,0 km/h (0 Bft) 100 %
23.06.2016 06:30 15,5 C 15,5 C 15,5 C 91 % 1019,8 hPa 0,0 l/m 0,0 km/h (0 Bft) N-NW 337 0 min 0,000 mm 14 W/m 14,0 C 15,5 C 1,6 km/h (1 Bft) 89 %
23.06.2016 06:40 15,6 C 15,5 C 15,6 C 91 % 1019,8 hPa 0,0 l/m 0,0 km/h (0 Bft) N 0 0 min 0,000 mm 16 W/m 14,1 C 15,6 C 0,0 km/h (0 Bft) 100 %
23.06.2016 06:50 15,8 C 15,6 C 15,8 C 91 % 1019,8 hPa 0,0 l/m 0,0 km/h (0 Bft) N-NW 337 0 min 0,000 mm 16 W/m 14,3 C 15,8 C 1,6 km/h (1 Bft) 100 %
23.06.2016 07:00 15,9 C 15,8 C 15,9 C 91 % 1019,8 hPa 0,0 l/m 0,0 km/h (0 Bft) N 0 0 min 0,000 mm 18 W/m 14,4 C 15,9 C 0,0 km/h (0 Bft) 100 %
23.06.2016 07:10 16,1 C 15,9 C 16,1 C 91 % 1019,9 hPa 0,0 l/m 0,0 km/h (0 Bft) N-NW 337 0 min 0,000 mm 18 W/m 14,6 C 16,1 C 1,6 km/h (1 Bft) 100 %
23.06.2016 07:20 16,3 C 16,1 C 16,3 C 91 % 1019,8 hPa 0,0 l/m 0,0 km/h (0 Bft) N 0 0 min 0,000 mm 19 W/m 14,8 C 16,3 C 0,0 km/h (0 Bft) 100 %
23.06.2016 07:30 16,7 C 16,3 C 16,7 C 91 % 1019,8 hPa 0,0 l/m 0,0 km/h (0 Bft) N-NW 337 0 min 0,000 mm 19 W/m 15,2 C 16,7 C 1,6 km/h (1 Bft) 100 %
23.06.2016 07:40 16,9 C 16,7 C 16,9 C 91 % 1019,8 hPa 0,0 l/m 0,0 km/h (0 Bft) N 0 0 min 0,000 mm 21 W/m 15,4 C 16,9 C 0,0 km/h (0 Bft) 100 %
23.06.2016 07:50 17,2 C 16,9 C 17,2 C 91 % 1019,8 hPa 0,0 l/m 0,0 km/h (0 Bft) NW 315 0 min 0,000 mm 21 W/m 15,7 C 17,2 C 1,6 km/h (1 Bft) 100 %
23.06.2016 08:00 17,7 C 17,2 C 17,7 C 91 % 1019,8 hPa 0,0 l/m 0,0 km/h (0 Bft) N 0 0 min 0,000 mm 25 W/m 16,2 C 17,7 C 0,0 km/h (0 Bft) 100 %
23.06.2016 08:10 18,1 C 17,7 C 18,1 C 91 % 1019,9 hPa 0,0 l/m 0,0 km/h (0 Bft) NW 315 0 min 0,000 mm 28 W/m 16,6 C 18,1 C 1,6 km/h (1 Bft) 100 %
23.06.2016 08:20 18,6 C 18,1 C 18,6 C 90 % 1019,8 hPa 0,0 l/m 0,0 km/h (0 Bft) O 90 10 min 0,000 mm 378 W/m 16,9 C 18,6 C 3,2 km/h (1 Bft) 100 %
23.06.2016 08:30 19,5 C 18,7 C 19,5 C 89 % 1019,8 hPa 0,0 l/m 0,0 km/h (0 Bft) O 90 10 min 0,000 mm 418 W/m 17,6 C 19,5 C 1,6 km/h (1 Bft) 99 %
23.06.2016 08:40 20,8 C 19,6 C 20,8 C 87 % 1019,9 hPa 0,0 l/m 0,0 km/h (0 Bft) NO 45 10 min 0,000 mm 446 W/m 18,6 C 20,8 C 1,6 km/h (1 Bft) 100 %
23.06.2016 08:50 21,8 C 20,8 C 21,8 C 83 % 1019,8 hPa 0,0 l/m 0,0 km/h (0 Bft) N-NO 22 10 min 0,000 mm 490 W/m 18,8 C 21,8 C 1,6 km/h (1 Bft) 100 %
23.06.2016 09:00 22,6 C 21,8 C 22,6 C 80 % 1019,8 hPa 0,0 l/m 0,0 km/h (0 Bft) O 90 10 min 0,178 mm 501 W/m 19,0 C 22,6 C 6,4 km/h (2 Bft) 100 %
23.06.2016 09:10 23,6 C 22,6 C 23,6 C 77 % 1019,8 hPa 0,0 l/m 0,0 km/h (0 Bft) O 90 10 min 0,000 mm 512 W/m 19,3 C 23,6 C 1,6 km/h (1 Bft) 100 %
23.06.2016 09:20 24,2 C 23,6 C 24,2 C 75 % 1019,9 hPa 0,0 l/m 0,0 km/h (0 Bft) O-SO 112 10 min 0,000 mm 540 W/m 19,5 C 24,2 C 1,6 km/h (1 Bft) 100 %
23.06.2016 09:30 24,6 C 24,2 C 24,6 C 74 % 1019,8 hPa 0,0 l/m 0,0 km/h (0 Bft) SO 135 10 min 0,000 mm 564 W/m 19,6 C 24,6 C 8,0 km/h (2 Bft) 100 %
23.06.2016 09:40 25,1 C 24,6 C 25,1 C 71 % 1019,8 hPa 0,0 l/m 0,0 km/h (0 Bft) O-SO 112 10 min 0,000 mm 589 W/m 19,5 C 25,1 C 1,6 km/h (1 Bft) 100 %
23.06.2016 09:50 25,7 C 25,2 C 25,7 C 71 % 1019,8 hPa 0,0 l/m 0,0 km/h (0 Bft) O-SO 112 10 min 0,000 mm 629 W/m 20,0 C 25,7 C 1,6 km/h (1 Bft) 99 %
23.06.2016 10:00 26,1 C 25,7 C 26,1 C 73 % 1019,8 hPa 0,0 l/m 0,0 km/h (0 Bft) SO 135 10 min 0,356 mm 671 W/m 20,9 C 26,1 C 1,6 km/h (1 Bft) 100 %
23.06.2016 10:10 26,4 C 26,2 C 26,4 C 66 % 1019,7 hPa 0,0 l/m 0,0 km/h (0 Bft) O-SO 112 10 min 0,000 mm 666 W/m 19,5 C 26,4 C 4,8 km/h (1 Bft) 100 %
23.06.2016 10:20 26,9 C 26,4 C 26,9 C 68 % 1019,8 hPa 0,0 l/m 0,0 km/h (0 Bft) O-SO 112 10 min 0,000 mm 722 W/m 20,5 C 26,9 C 3,2 km/h (1 Bft) 100 %
23.06.2016 10:30 27,4 C 26,4 C 27,4 C 65 % 1019,8 hPa 0,0 l/m 0,0 km/h (0 Bft) O-SO 119 10 min 0,000 mm 701 W/m 20,2 C 27,4 C 1,6 km/h (1 Bft) 99 %
23.06.2016 10:40 27,6 C 27,3 C 27,6 C 69 % 1019,9 hPa 0,0 l/m 0,0 km/h (0 Bft) S-SO 154 10 min 0,000 mm 714 W/m 21,4 C 27,6 C 1,6 km/h (1 Bft) 99 %
23.06.2016 10:50 27,7 C 27,6 C 27,8 C 64 % 1019,8 hPa 0,0 l/m 0,8 km/h (0 Bft) O-SO 105 10 min 0,000 mm 740 W/m 20,3 C 27,7 C 9,7 km/h (2 Bft) 100 %
23.06.2016 11:00 27,7 C 27,7 C 27,8 C 65 % 1019,6 hPa 0,0 l/m 1,1 km/h (1 Bft) O-SO 110 10 min 0,432 mm 765 W/m 20,5 C 27,7 C 9,7 km/h (2 Bft) 100 %
23.06.2016 11:10 28,1 C 27,7 C 28,1 C 61 % 1019,5 hPa 0,0 l/m 0,2 km/h (0 Bft) O-SO 103 10 min 0,000 mm 800 W/m 19,9 C 28,1 C 4,8 km/h (1 Bft) 99 %
23.06.2016 11:20 28,2 C 28,1 C 28,2 C 63 % 1019,4 hPa 0,0 l/m 1,2 km/h (1 Bft) O-SO 121 10 min 0,000 mm 796 W/m 20,5 C 28,2 C 11,3 km/h (2 Bft) 100 %
23.06.2016 11:30 28,1 C 28,1 C 28,2 C 63 % 1019,2 hPa 0,0 l/m 3,2 km/h (1 Bft) S-SO 148 10 min 0,000 mm 853 W/m 20,4 C 28,1 C 16,1 km/h (3 Bft) 100 %
23.06.2016 11:40 28,3 C 28,1 C 28,3 C 64 % 1019,1 hPa 0,0 l/m 2,0 km/h (1 Bft) O 94 10 min 0,000 mm 823 W/m 20,8 C 28,3 C 14,5 km/h (3 Bft) 100 %
23.06.2016 11:50 28,7 C 28,3 C 28,7 C 60 % 1019,2 hPa 0,0 l/m 0,5 km/h (0 Bft) O-SO 103 10 min 0,000 mm 817 W/m 20,1 C 28,7 C 8,0 km/h (2 Bft) 100 %
23.06.2016 12:00 29,1 C 28,7 C 29,1 C 63 % 1019,2 hPa 0,0 l/m 0,2 km/h (0 Bft) S-SW 210 10 min 0,533 mm 849 W/m 21,3 C 29,1 C 4,8 km/h (1 Bft) 100 %
23.06.2016 12:10 29,6 C 29,1 C 29,6 C 63 % 1019,3 hPa 0,0 l/m 0,3 km/h (0 Bft) S 172 10 min 0,000 mm 881 W/m 21,8 C 29,6 C 6,4 km/h (2 Bft) 100 %
23.06.2016 12:20 30,0 C 29,6 C 30,0 C 62 % 1019,2 hPa 0,0 l/m 0,4 km/h (0 Bft) SW 219 10 min 0,000 mm 879 W/m 21,9 C 30,0 C 6,4 km/h (2 Bft) 100 %
23.06.2016 12:30 30,0 C 30,0 C 30,1 C 58 % 1019,1 hPa 0,0 l/m 0,4 km/h (0 Bft) SO 124 10 min 0,000 mm 867 W/m 20,8 C 30,0 C 8,0 km/h (2 Bft) 100 %
23.06.2016 12:40 30,0 C 29,9 C 30,1 C 61 % 1019,0 hPa 0,0 l/m 0,4 km/h (0 Bft) SW 217 10 min 0,000 mm 879 W/m 21,6 C 30,0 C 6,4 km/h (2 Bft) 100 %
23.06.2016 12:50 30,2 C 30,0 C 30,2 C 57 % 1018,9 hPa 0,0 l/m 0,5 km/h (0 Bft) O-SO 115 10 min 0,000 mm 886 W/m 20,7 C 30,2 C 6,4 km/h (2 Bft) 100 %
23.06.2016 13:00 30,3 C 30,2 C 30,3 C 54 % 1018,8 hPa 0,0 l/m 0,7 km/h (0 Bft) SO 135 10 min 0,585 mm 875 W/m 19,9 C 30,3 C 9,7 km/h (2 Bft) 100 %
23.06.2016 13:10 30,3 C 30,2 C 30,3 C 55 % 1018,8 hPa 0,0 l/m 0,8 km/h (0 Bft) O-SO 111 10 min 0,000 mm 935 W/m 20,2 C 30,3 C 9,7 km/h (2 Bft) 100 %
23.06.2016 13:20 30,4 C 30,3 C 30,4 C 59 % 1018,7 hPa 0,0 l/m 0,4 km/h (0 Bft) O-SO 123 10 min 0,000 mm 868 W/m 21,5 C 30,4 C 8,0 km/h (2 Bft) 100 %
23.06.2016 13:30 30,7 C 30,4 C 30,7 C 56 % 1018,5 hPa 0,0 l/m 1,5 km/h (1 Bft) SO 140 10 min 0,000 mm 886 W/m 20,9 C 30,7 C 17,7 km/h (3 Bft) 100 %
23.06.2016 13:40 30,8 C 30,7 C 30,8 C 55 % 1018,5 hPa 0,0 l/m 1,0 km/h (0 Bft) NO 34 10 min 0,000 mm 879 W/m 20,7 C 30,8 C 11,3 km/h (2 Bft) 100 %
23.06.2016 13:50 31,0 C 30,8 C 31,0 C 58 % 1018,4 hPa 0,0 l/m 0,3 km/h (0 Bft) S 184 10 min 0,000 mm 879 W/m 21,7 C 31,0 C 4,8 km/h (1 Bft) 100 %
23.06.2016 14:00 31,1 C 31,0 C 31,1 C 53 % 1018,2 hPa 0,0 l/m 0,7 km/h (0 Bft) S-SO 157 10 min 0,609 mm 891 W/m 20,4 C 31,1 C 6,4 km/h (2 Bft) 100 %
23.06.2016 14:10 31,4 C 31,1 C 31,4 C 56 % 1018,1 hPa 0,0 l/m 0,1 km/h (0 Bft) O 89 10 min 0,000 mm 875 W/m 21,5 C 31,4 C 6,4 km/h (2 Bft) 100 %
23.06.2016 14:20 31,5 C 31,4 C 31,6 C 50 % 1018,0 hPa 0,0 l/m 1,1 km/h (1 Bft) O-SO 123 10 min 0,000 mm 865 W/m 19,8 C 31,5 C 11,3 km/h (2 Bft) 100 %
23.06.2016 14:30 31,2 C 31,2 C 31,5 C 54 % 1017,9 hPa 0,0 l/m 1,4 km/h (1 Bft) S 186 10 min 0,000 mm 872 W/m 20,8 C 31,2 C 9,7 km/h (2 Bft) 100 %
23.06.2016 14:40 31,3 C 31,1 C 31,3 C 50 % 1017,8 hPa 0,0 l/m 1,3 km/h (1 Bft) S 190 10 min 0,000 mm 861 W/m 19,6 C 31,3 C 9,7 km/h (2 Bft) 100 %
23.06.2016 14:50 31,5 C 31,3 C 31,5 C 47 % 1017,7 hPa 0,0 l/m 1,5 km/h (1 Bft) O-SO 103 10 min 0,000 mm 896 W/m 18,8 C 31,5 C 9,7 km/h (2 Bft) 100 %
23.06.2016 15:00 31,7 C 31,4 C 31,7 C 54 % 1017,7 hPa 0,0 l/m 0,5 km/h (0 Bft) SO 145 10 min 0,610 mm 833 W/m 21,2 C 31,7 C 8,0 km/h (2 Bft) 99 %
23.06.2016 15:10 31,9 C 31,7 C 31,9 C 54 % 1017,6 hPa 0,0 l/m 0,6 km/h (0 Bft) S-SO 155 10 min 0,000 mm 828 W/m 21,4 C 31,9 C 6,4 km/h (2 Bft) 100 %
23.06.2016 15:20 31,9 C 31,9 C 31,9 C 50 % 1017,6 hPa 0,0 l/m 0,7 km/h (0 Bft) O-SO 104 10 min 0,000 mm 849 W/m 20,2 C 31,9 C 6,4 km/h (2 Bft) 100 %
23.06.2016 15:30 31,9 C 31,9 C 31,9 C 55 % 1017,6 hPa 0,0 l/m 0,8 km/h (0 Bft) SO 128 10 min 0,000 mm 812 W/m 21,7 C 31,9 C 6,4 km/h (2 Bft) 100 %
23.06.2016 15:40 32,1 C 31,9 C 32,1 C 51 % 1017,3 hPa 0,0 l/m 0,1 km/h (0 Bft) NW 304 10 min 0,000 mm 714 W/m 20,7 C 32,1 C 3,2 km/h (1 Bft) 100 %
23.06.2016 15:50 32,1 C 32,1 C 32,1 C 51 % 1017,3 hPa 0,0 l/m 1,0 km/h (0 Bft) S 185 10 min 0,000 mm 786 W/m 20,7 C 32,1 C 11,3 km/h (2 Bft) 100 %
23.06.2016 16:00 32,1 C 32,1 C 32,1 C 52 % 1017,2 hPa 0,0 l/m 0,1 km/h (0 Bft) O-NO 73 10 min 0,533 mm 756 W/m 21,0 C 32,1 C 4,8 km/h (1 Bft) 100 %
23.06.2016 16:10 32,1 C 32,1 C 32,2 C 53 % 1017,2 hPa 0,0 l/m 0,3 km/h (0 Bft) O 98 10 min 0,000 mm 733 W/m 21,3 C 32,1 C 6,4 km/h (2 Bft) 100 %
23.06.2016 16:20 32,2 C 32,1 C 32,2 C 54 % 1017,1 hPa 0,0 l/m 0,1 km/h (0 Bft) N 350 10 min 0,000 mm 362 W/m 21,7 C 32,2 C 4,8 km/h (1 Bft) 100 %
23.06.2016 16:30 32,2 C 32,2 C 32,2 C 51 % 1017,2 hPa 0,0 l/m 0,5 km/h (0 Bft) SO 127 10 min 0,000 mm 285 W/m 20,7 C 32,2 C 6,4 km/h (2 Bft) 100 %
23.06.2016 16:40 32,2 C 32,1 C 32,2 C 57 % 1017,0 hPa 0,0 l/m 0,2 km/h (0 Bft) SO 134 0 min 0,000 mm 58 W/m 22,6 C 32,2 C 3,2 km/h (1 Bft) 100 %
23.06.2016 16:50 32,3 C 32,2 C 32,3 C 50 % 1016,8 hPa 0,0 l/m 0,0 km/h (0 Bft) SO 130 0 min 0,000 mm 56 W/m 20,5 C 32,3 C 1,6 km/h (1 Bft) 100 %
23.06.2016 17:00 32,2 C 32,2 C 32,3 C 52 % 1016,8 hPa 0,0 l/m 0,0 km/h (0 Bft) SO 135 0 min 0,229 mm 53 W/m 21,1 C 32,2 C 1,6 km/h (1 Bft) 100 %
23.06.2016 17:10 32,2 C 32,1 C 32,2 C 57 % 1016,7 hPa 0,0 l/m 0,2 km/h (0 Bft) S-SO 155 0 min 0,000 mm 54 W/m 22,6 C 32,2 C 4,8 km/h (1 Bft) 100 %
23.06.2016 17:20 31,9 C 31,9 C 32,2 C 55 % 1016,6 hPa 0,0 l/m 0,2 km/h (0 Bft) SO 138 0 min 0,000 mm 54 W/m 21,7 C 31,9 C 6,4 km/h (2 Bft) 100 %
23.06.2016 17:30 31,9 C 31,9 C 32,1 C 57 % 1016,4 hPa 0,0 l/m 0,1 km/h (0 Bft) SO 134 0 min 0,000 mm 23 W/m 22,3 C 31,9 C 4,8 km/h (1 Bft) 99 %
23.06.2016 17:40 31,9 C 31,9 C 31,9 C 54 % 1016,3 hPa 0,0 l/m 0,1 km/h (0 Bft) O 98 0 min 0,000 mm 16 W/m 21,4 C 31,9 C 6,4 km/h (2 Bft) 98 %
23.06.2016 17:50 31,8 C 31,7 C 31,9 C 52 % 1016,2 hPa 0,0 l/m 0,2 km/h (0 Bft) O-SO 109 0 min 0,000 mm 25 W/m 20,7 C 31,8 C 4,8 km/h (1 Bft) 97 %
23.06.2016 18:00 31,7 C 31,7 C 31,8 C 57 % 1016,2 hPa 0,0 l/m 0,1 km/h (0 Bft) O-SO 105 0 min 0,025 mm 47 W/m 22,1 C 31,7 C 4,8 km/h (1 Bft) 98 %
23.06.2016 18:10 31,5 C 31,5 C 31,7 C 59 % 1016,2 hPa 0,0 l/m 0,2 km/h (0 Bft) NO 46 0 min 0,000 mm 47 W/m 22,5 C 31,5 C 3,2 km/h (1 Bft) 97 %
23.06.2016 18:20 31,2 C 31,2 C 31,5 C 60 % 1016,3 hPa 0,0 l/m 0,0 km/h (0 Bft) NO 46 0 min 0,000 mm 47 W/m 22,5 C 31,2 C 1,6 km/h (1 Bft) 98 %
23.06.2016 18:30 31,1 C 31,1 C 31,2 C 59 % 1016,0 hPa 0,0 l/m 0,0 km/h (0 Bft) NO 56 0 min 0,000 mm 44 W/m 22,1 C 31,1 C 1,6 km/h (1 Bft) 97 %
23.06.2016 18:40 31,0 C 31,0 C 31,1 C 59 % 1016,1 hPa 0,0 l/m 0,0 km/h (0 Bft) NO 56 0 min 0,000 mm 30 W/m 22,0 C 31,0 C 1,6 km/h (1 Bft) 98 %
23.06.2016 18:50 30,8 C 30,8 C 31,0 C 62 % 1016,1 hPa 0,0 l/m 0,0 km/h (0 Bft) NO 56 0 min 0,000 mm 32 W/m 22,7 C 30,8 C 0,0 km/h (0 Bft) 96 %
23.06.2016 19:00 30,6 C 30,6 C 30,8 C 64 % 1016,1 hPa 0,0 l/m 0,0 km/h (0 Bft) NO 50 0 min 0,051 mm 91 W/m 23,0 C 30,6 C 1,6 km/h (1 Bft) 97 %
23.06.2016 19:10 30,3 C 30,3 C 30,6 C 60 % 1015,9 hPa 0,0 l/m 0,1 km/h (0 Bft) O 94 10 min 0,000 mm 155 W/m 21,6 C 30,3 C 3,2 km/h (1 Bft) 98 %
23.06.2016 19:20 30,2 C 30,1 C 30,3 C 60 % 1015,8 hPa 0,0 l/m 0,1 km/h (0 Bft) NO 53 10 min 0,000 mm 243 W/m 21,6 C 30,2 C 6,4 km/h (2 Bft) 97 %
23.06.2016 19:30 30,0 C 30,0 C 30,2 C 61 % 1015,8 hPa 0,0 l/m 0,0 km/h (0 Bft) NO 53 10 min 0,000 mm 190 W/m 21,6 C 30,0 C 1,6 km/h (1 Bft) 98 %
23.06.2016 19:40 29,8 C 29,8 C 30,0 C 62 % 1015,7 hPa 0,0 l/m 0,0 km/h (0 Bft) NO 55 10 min 0,000 mm 186 W/m 21,7 C 29,8 C 1,6 km/h (1 Bft) 97 %
23.06.2016 19:50 29,4 C 29,4 C 29,8 C 62 % 1015,7 hPa 0,0 l/m 0,1 km/h (0 Bft) O 90 0 min 0,000 mm 32 W/m 21,3 C 29,4 C 4,8 km/h (1 Bft) 97 %
23.06.2016 20:00 29,2 C 29,2 C 29,4 C 59 % 1015,5 hPa 0,0 l/m 0,2 km/h (0 Bft) O 97 0 min 0,102 mm 30 W/m 20,3 C 29,2 C 6,4 km/h (2 Bft) 98 %
23.06.2016 20:10 29,0 C 29,0 C 29,2 C 59 % 1015,5 hPa 0,0 l/m 0,2 km/h (0 Bft) O-SO 107 0 min 0,000 mm 0 W/m 20,2 C 29,0 C 6,4 km/h (2 Bft) 97 %
23.06.2016 20:20 28,7 C 28,7 C 29,0 C 61 % 1015,3 hPa 0,0 l/m 0,3 km/h (0 Bft) O 101 0 min 0,000 mm 0 W/m 20,4 C 28,7 C 6,4 km/h (2 Bft) 98 %
23.06.2016 20:30 28,4 C 28,4 C 28,7 C 61 % 1015,3 hPa 0,0 l/m 0,5 km/h (0 Bft) O-SO 105 0 min 0,000 mm 21 W/m 20,1 C 28,4 C 8,0 km/h (2 Bft) 96 %
23.06.2016 20:40 28,2 C 28,2 C 28,4 C 60 % 1015,3 hPa 0,0 l/m 0,2 km/h (0 Bft) O 101 0 min 0,000 mm 0 W/m 19,7 C 28,2 C 4,8 km/h (1 Bft) 97 %
23.06.2016 20:50 27,8 C 27,8 C 28,2 C 60 % 1015,4 hPa 0,0 l/m 0,1 km/h (0 Bft) O 99 0 min 0,000 mm 0 W/m 19,3 C 27,8 C 4,8 km/h (1 Bft) 97 %
23.06.2016 21:00 27,4 C 27,4 C 27,8 C 61 % 1015,4 hPa 0,0 l/m 0,2 km/h (0 Bft) O-SO 113 0 min 0,025 mm 0 W/m 19,2 C 27,4 C 4,8 km/h (1 Bft) 97 %
23.06.2016 21:10 27,0 C 27,0 C 27,4 C 59 % 1015,4 hPa 0,0 l/m 0,0 km/h (0 Bft) O 90 0 min 0,000 mm 0 W/m 18,3 C 27,0 C 9,7 km/h (2 Bft) 100 %
23.06.2016 21:20 26,8 C 26,8 C 27,0 C 61 % 1015,3 hPa 0,0 l/m 1,6 km/h (1 Bft) O-SO 112 0 min 0,000 mm 0 W/m 18,6 C 26,8 C 8,0 km/h (2 Bft) 99 %
23.06.2016 21:30 26,6 C 26,6 C 26,8 C 61 % 1015,3 hPa 0,0 l/m 0,0 km/h (0 Bft) O-SO 112 0 min 0,000 mm 5 W/m 18,4 C 26,6 C 9,7 km/h (2 Bft) 100 %
23.06.2016 21:40 26,4 C 26,4 C 26,6 C 61 % 1015,4 hPa 0,0 l/m 0,0 km/h (0 Bft) O 90 0 min 0,000 mm 0 W/m 18,3 C 26,4 C 6,4 km/h (2 Bft) 100 %
23.06.2016 21:50 26,2 C 26,2 C 26,4 C 62 % 1015,5 hPa 0,0 l/m 0,0 km/h (0 Bft) O-SO 112 0 min 0,000 mm 0 W/m 18,3 C 26,2 C 8,0 km/h (2 Bft) 100 %
23.06.2016 22:00 26,0 C 26,0 C 26,2 C 62 % 1015,5 hPa 0,0 l/m 1,6 km/h (1 Bft) O-SO 112 0 min 0,025 mm 0 W/m 18,1 C 26,0 C 9,7 km/h (2 Bft) 100 %
23.06.2016 22:10 25,9 C 25,9 C 26,0 C 62 % 1015,5 hPa 0,0 l/m 1,6 km/h (1 Bft) O-SO 112 0 min 0,000 mm 0 W/m 18,0 C 25,9 C 11,3 km/h (2 Bft) 100 %
23.06.2016 22:20 25,9 C 25,9 C 25,9 C 63 % 1015,5 hPa 0,0 l/m 1,6 km/h (1 Bft) O 90 0 min 0,000 mm 0 W/m 18,3 C 25,9 C 9,7 km/h (2 Bft) 100 %
23.06.2016 22:30 25,7 C 25,7 C 25,9 C 62 % 1015,5 hPa 0,0 l/m 1,6 km/h (1 Bft) O 90 0 min 0,000 mm 0 W/m 17,9 C 25,7 C 8,0 km/h (2 Bft) 100 %
23.06.2016 22:40 25,7 C 25,7 C 25,8 C 63 % 1015,5 hPa 0,0 l/m 1,6 km/h (1 Bft) O 90 0 min 0,000 mm 0 W/m 18,1 C 25,7 C 9,7 km/h (2 Bft) 100 %
23.06.2016 22:50 25,5 C 25,5 C 25,7 C 64 % 1015,5 hPa 0,0 l/m 1,6 km/h (1 Bft) O-SO 112 0 min 0,000 mm 0 W/m 18,2 C 25,5 C 11,3 km/h (2 Bft) 100 %
23.06.2016 23:00 25,4 C 25,4 C 25,5 C 63 % 1015,3 hPa 0,0 l/m 0,0 km/h (0 Bft) O-SO 112 0 min 0,051 mm 0 W/m 17,8 C 25,4 C 6,4 km/h (2 Bft) 100 %
23.06.2016 23:10 25,1 C 25,1 C 25,3 C 64 % 1015,4 hPa 0,0 l/m 0,0 km/h (0 Bft) O 90 0 min 0,000 mm 0 W/m 17,8 C 25,1 C 8,0 km/h (2 Bft) 100 %
23.06.2016 23:20 24,9 C 24,9 C 25,1 C 65 % 1015,5 hPa 0,0 l/m 0,0 km/h (0 Bft) O 90 0 min 0,000 mm 0 W/m 17,9 C 24,9 C 6,4 km/h (2 Bft) 100 %
23.06.2016 23:30 24,8 C 24,8 C 24,9 C 66 % 1015,5 hPa 0,0 l/m 0,0 km/h (0 Bft) O-SO 112 0 min 0,000 mm 0 W/m 18,0 C 24,8 C 6,4 km/h (2 Bft) 100 %
23.06.2016 23:40 24,4 C 24,4 C 24,8 C 70 % 1015,5 hPa 0,0 l/m 0,0 km/h (0 Bft) N-NW 337 0 min 0,000 mm 0 W/m 18,6 C 24,4 C 6,4 km/h (2 Bft) 100 %
23.06.2016 23:50 23,8 C 23,8 C 24,4 C 70 % 1015,4 hPa 0,0 l/m 0,0 km/h (0 Bft) N-NW 337 0 min 0,000 mm 0 W/m 18,0 C 23,8 C 1,6 km/h (1 Bft) 100 %
_ Min-Zeit 05:50 05:50 06:00 14:50 20:20 - 00:00 - - - - - 05:50 05:50 00:40 06:30
Minimum _ 15,3 C 15,3 C 15,3 C 47 % 1015,3 hPa - 0,0 km/h (0 Bft) - - - - - 13,8 C 15,3 C 0,0 km/h (0 Bft) 89 %
_ Max-Zeit 16:50 16:30 16:50 05:00 00:40 00:00 11:30 - - 08:20 15:00 13:10 19:00 16:50 13:30 00:00
Maximum _ 32,3 C 32,2 C 32,3 C 91 % 1020,8 hPa 0,0 l/m 3,2 km/h
S-SO (1 Bft)
- - 10 min 0,610 mm 935 W/m 23,0 C 32,3 C 17,7 km/h
SO (3 Bft)
100 %
Durchschnitt _ 24,6 C 24,5 C 24,7 C 71 % 1018,4 hPa #0,0 l/m 0,3 km/h (0 Bft) O-SO - #9:00 h #4,394 mm 430 W/m 18,5 C 24,6 C 4,3 km/h (1 Bft) 99 %
PRIVATE WETTERSTATION BILLIGHEIM-ALLFELD - www.neckar-odenwald-wetter.de - Holger Sonntag